Regional Weather Roundup
Issued by NWS San Diego, CA

Home | Current Version | Previous Version | Text Only | Print | Product List | Glossary On
Versions: 1 2 3 4 5 6 7 8 9 10 11 12 13 14 15 16 17 18 19 20 21 22 23 24 25 26 27 28 29 30 31 32 33 34 35 36 37 38 39 40 41 42 43 44 45 46 47 48 49 50
000
ASUS46 KSGX 291611
RWRSGX

SAN DIEGO HOURLY WEATHER ROUNDUP
NATIONAL WEATHER SERVICE SAN DIEGO CA
900 AM PDT FRI MAY 29 2015

NOTE: "FAIR" INDICATES FEW OR NO CLOUDS BELOW 12,000 FEET WITH NO
SIGNIFICANT WEATHER AND/OR OBSTRUCTIONS TO VISIBILITY.

CAZ042-043-060-061-PZZ750-775-291700-

GREATER SAN DIEGO AREA

CITY           SKY/WX    TMP DP  RH WIND       PRES   REMARKS
LINDBERGH FLD  CLOUDY    63  55  75 CALM      29.98S
POINT LOMA       N/A     61  57  85 NW3         N/A
NATIONAL CITY    N/A     63  58  84 W1        29.97S
CHULA VISTA      N/A     62  59  89 CALM      29.90S
IMPERIAL BEACH CLOUDY    62  57  83 W6        29.97S
BROWN FIELD    CLOUDY    61  56  83 W6        29.96S HAZE
MIRAMAR MCAS   CLOUDY    65  56  72 VRB5      29.97R
MONTGOMERY FLD CLOUDY    61  56  83 CALM      29.97R HAZE

$$

NORTH SAN DIEGO COUNTY

CITY           SKY/WX    TMP DP  RH WIND       PRES   REMARKS
CAMP PENDLETON CLOUDY    62  56  80 CALM      29.96S
OCEANSIDE AP   CLOUDY    64  57  78 CALM      29.96R
OCEANSIDE HBR    N/A     62  59  91 SW3       30.00R
VISTA            N/A     60  55  82 CALM      29.95R
CARLSBAD       CLOUDY    61  57  87 CALM      29.96S
DEL MAR          N/A     61  58  90 CALM      29.99R
LA JOLLA SCRIP   N/A    N/A N/A N/A NW1       29.95S
FALLBROOK        N/A     59  59 100 CALM      29.96R
ESCONDIDO        N/A     62  59  91 CALM      29.98S
SAN MARCOS       N/A     60  56  88 CALM      29.95R
POWAY            N/A     60  56  88 W2        29.98S

$$

EAST SAN DIEGO COUNTY

CITY           SKY/WX    TMP DP  RH WIND       PRES   REMARKS
RAMONA         MOSUNNY   59  56  89 SW3       29.96F
SANTEE LAKES     N/A     60  58  92 CALM      29.97R
LA MESA          N/A     60  56  87 CALM      29.91R
JAMUL            N/A     57  56  95 CALM      29.95S
DESCANSO N       N/A     76  46  33 E1        29.82S
MT. LAGUNA OBS   N/A     69  31  24 CALM      29.73R
CAMPO            N/A     76  40  27 CALM      29.96S

$$

ORANGE COUNTY AND THE LOS ANGELES BASIN

CITY           SKY/WX    TMP DP  RH WIND       PRES   REMARKS
JOHN WAYNE AP  CLOUDY    63  55  75 SE5       29.97R
LAKE FOREST FR   N/A     60  53  79 CALM      29.88S
SANTA ANA        N/A     64  59  83 CALM      29.93R
HUNTINGTON BCH   N/A     62  58  86 CALM      29.99R
LOS ALAMITOS   CLOUDY    62  57  84 CALM      29.97R HAZE
FULLERTON      CLOUDY    64  55  72 CALM      29.97R
LONG BEACH     CLOUDY    63  56  78 NE5       29.97S HAZE
L.A. AP        CLOUDY    60  56  86 CALM      29.98R FOG
L.A. DOWNTOWN  CLOUDY    63  56  78 CALM      29.97R HAZE

$$

THE INLAND EMPIRE

CITY           SKY/WX    TMP DP  RH WIND       PRES   REMARKS
CORONA         CLOUDY    61  56  83 CALM      29.98S HAZE
CHINO          CLOUDY    62  57  83 VRB3      29.99R HAZE
ONTARIO        MOSUNNY   63  55  75 VRB3      29.97R HAZE
SAN BERNARDINO SUNNY     64  54  68 CALM      29.97S HAZE
RIVERSIDE AP   CLOUDY    58  56  93 CALM      29.98R FOG
RIV CYN CREST    N/A     59  59 100 SW1         N/A
MORENO VALLEY    N/A     69  61  77 S1        29.95S
MARCH ARB      SUNNY     67  56  68 VRB2      29.97R
HORSETHIEF CYN   N/A     64  54  70 N2        29.91F
PERRIS           N/A     66  59  78 CALM        N/A
MENIFEE          N/A     63  59  86 CALM      30.03S
HEMET EAST       N/A     66  51  58 CALM      29.90S
FRENCH VALLEY  FAIR      61  57  88 CALM      29.97S
TEMECULA         N/A     59  58  95 CALM      29.93S

$$

SAN BERNARDINO AND RIVERSIDE COUNTY MOUNTAINS

CITY           SKY/WX    TMP DP  RH WIND       PRES   REMARKS
BIG BEAR AP    SUNNY     64  27  24 CALM      30.23S
ANGELUS OAKS     N/A     67  37  32 CALM      29.83S
PINE COVE        N/A     68  39  34 SE3       29.90R

$$

SOUTHERN DESERT INCLUDING THE COACHELLA VALLEY

CITY           SKY/WX    TMP DP  RH WIND       PRES   REMARKS
PALM SPRINGS   SUNNY     84  49  29 E8        29.91R
PALM DESERT      N/A     85  55  35 CALM        N/A
THERMAL        SUNNY     83  49  30 SE10      29.87R
BLYTHE         SUNNY     84  44  24 S7        29.90R
IMPERIAL AP    SUNNY     81  57  43 CALM      29.87R
EL CENTRO NAS  SUNNY     81  55  40 VRB3      29.89R
YUMA AZ        SUNNY     83  41  22 S7        29.90R
MEXICALI       SUNNY     79  61  53 SE10      29.89R

$$

UPPER DESERT

CITY           SKY/WX    TMP DP  RH WIND       PRES   REMARKS
VICTORVILLE AP SUNNY     75  30  19 CALM      30.01S
HESPERIA         N/A     76  32  20 CALM      30.01R
APPLE VALLEY     N/A     75  37  25 CALM      30.04S
PALMDALE       SUNNY     78  31  17 CALM      30.00R
LANCASTER      SUNNY     78  38  23 CALM      29.99R
EDWARDS AFB    MOSUNNY   71  33  25 E1        29.97R
DAGGETT        SUNNY     82  28  14 NW13      29.95R
29 PALMS N     SUNNY     80  29  15 CALM      30.03R
NEEDLES        SUNNY     88  26  10 VRB3      29.91R

$$

REGIONAL REPORTS

CITY           SKY/WX    TMP DP  RH WIND       PRES   REMARKS
SANTA BARBARA  CLOUDY    58  55  90 SE5       29.97R
SANDBERG       SUNNY     74  35  24 N15       30.10R
LAS VEGAS NV   MOSUNNY   85  33  15 CALM      29.95R
PHOENIX AZ     MOSUNNY   85  34  16 E3        29.93R
TIJUANA        CLOUDY    61  54  77 NW5       29.99S FOG
ENSENADA NW      N/A     60  32  35 W7        29.95R

$$

OFFSHORE ISLANDS

CITY           SKY/WX    TMP DP  RH WIND       PRES   REMARKS
CATALINA ARPT  MOSUNNY   56  54  93 CALM      29.98R
SAN CLEMENTE I CLOUDY    62  54  74 CALM      29.99R
SAN NICOLAS IS CLOUDY    60  48  64 N10       29.96R

$$

MARINE AND OFFSHORE BUOY REPORTS

STATION/POSITION SKY/WX   TEMP    WIND        PRES    SWELL
                          AIR SEA DIR/SP/G            HT/PER/DIR
                          (F)     (DEG/KT/KT) (MB)    (FT/S/D)
TANNER BANKS               58 60  330/ 14/ 16 1015.0R   5/290/13
S CLEMENTE BASIN           59 63  340/  2/  4 1014.8R   3/240/15
SAN NICOLAS IS.               60                N/A     3/250/13
SO. S. ROSA ISLA           55 60  340/ 12/ 14 1014.5R   5/13
W. S. BARBARA CH           52 56  330/ 14/ 17 1014.6R   5/280/14
M. S. BARBARA CH           57 59  150/  6/  8 1015.3R
S. MONICA BASIN            60 63  130/  6/ 10 1014.8R   3/260/16
S PEDRO CHANNEL               63                N/A     2/190/14
DANA POINT                    65                N/A     3/200/17
OCEANSIDE OFFSHR              65                N/A     3/210/17
TORREY PINES OTR              65                N/A     3/220/15
LA JOLLA 1                 61 64  320/  4/  4 1014.5R
MISSION BAY BUOY              65                N/A     3/220/15
SAN DIEGO BAY                 63              1015.0R
POINT LOMA SOUTH              65                N/A     3/210/17

$$



USA.gov is the U.S. government's official web portal to all federal, state and local government web resources and services.